Rome Ciampino, Italy

9:31 AM CEST on October 22, 2017 (GMT +0200)
Ciampino

Weather History for LIRA - October, 2014

Change the Weather History Date:

Friday, October 3, 2014

  Actual Average Record
Temperature  
Mean Temperature 67 °F -  
Max Temperature 77 °F 70 °F 82 °F (2007)
Min Temperature 57 °F 50 °F 53 °F (1998)
Cooling Degree Days 2    
Growing Degree Days 17 (Base 50)    
Moisture  
Dew Point 57 °F    
Average Humidity 78    
Maximum Humidity 94    
Minimum Humidity 37    
Precipitation  
Precipitation 0.51 in 0.13 in - ()
Sea Level Pressure  
Sea Level Pressure 30.07 in    
Wind  
Wind Speed 2 mph ()    
Max Wind Speed 17 mph    
Max Gust Speed 23 mph    
Visibility 6.3 miles    
Events Rain , Thunderstorm    
Averages and records for this station are not official NWS values.
T = Trace of Precipitation, MM = Missing Value Source: Averaged Metar Reports

Daily Weather History Graph

Daily Weather History Graph

Search for Another Location

Airport or City:

Trip Planner

Search our weather history database for the weather conditions in past years. The results will help you decide how hot, cold, wet, or windy it might be!

Date:

Astronomy

Oct. 03, 2014 Rise Set
Actual Time 7:08 AM CEST 6:48 PM CEST
Civil Twilight 6:40 AM CEST 7:16 PM CEST
Nautical Twilight 6:08 AM CEST 7:48 PM CEST
Astronomical Twilight 5:35 AM CEST 8:20 PM CEST
Moon 3:33 PM CEST (10/3) 1:06 AM CEST (10/3)
Length of Visible Light 12h 35m
Length of Day
11h 39m
Waxing Gibbous, 68% of the Moon is Illuminated
Oct 3
Waxing Gibbous
Oct 8
Full
Oct 15
Last Quarter
Oct 23
New
Oct 31
First Quarter

Hourly Weather History & Observations

Time (CEST) Temp. Dew Point Humidity Pressure Visibility Wind Dir Wind Speed Gust Speed Precip Events Conditions
12:15 AM 60.8 °F 57.2 °F 88% 30.12 in 6.2 mi North 1.2 mph - N/A   Mostly Cloudy
12:45 AM 60.8 °F 57.2 °F 88% 30.12 in 6.2 mi NNE 1.2 mph - N/A   Scattered Clouds
1:15 AM 60.8 °F 57.2 °F 88% 30.12 in 6.2 mi Calm Calm - N/A   Partly Cloudy
1:45 AM 59.0 °F 57.2 °F 94% 30.12 in 6.2 mi Calm Calm - N/A   Partly Cloudy
2:00 AM 60 °F 57 °F 85% 30.13 in 6 mi Calm Calm - -   Scattered Clouds
2:15 AM 59.0 °F 57.2 °F 94% 30.12 in 6.2 mi Calm Calm - N/A   Partly Cloudy
2:45 AM 59.0 °F 55.4 °F 88% 30.12 in 6.2 mi ENE 1.2 mph - N/A   Partly Cloudy
3:15 AM 59.0 °F 55.4 °F 88% 30.09 in 6.2 mi NE 2.3 mph - N/A   Partly Cloudy
3:45 AM 59.0 °F 57.2 °F 94% 30.09 in 6.2 mi ENE 2.3 mph - N/A   Scattered Clouds
4:15 AM 59.0 °F 55.4 °F 88% 30.09 in 6.2 mi NE 2.3 mph - N/A   Scattered Clouds
4:45 AM 57.2 °F 55.4 °F 94% 30.09 in 6.2 mi NE 3.5 mph - N/A   Scattered Clouds
5:00 AM 58 °F 55 °F 86% 30.12 in 6 mi NE 3.5 mph - -   Partly Cloudy
5:15 AM 57.2 °F 55.4 °F 94% 30.09 in 6.2 mi ENE 2.3 mph - N/A   Partly Cloudy
5:45 AM 57.2 °F 53.6 °F 88% 30.09 in 6.2 mi ENE 1.2 mph - N/A   Scattered Clouds
6:15 AM 57.2 °F 53.6 °F 88% 30.09 in 6.2 mi NNE 1.2 mph - N/A   Scattered Clouds
6:45 AM 57.2 °F 55.4 °F 94% 30.09 in 6.2 mi NNE 2.3 mph - N/A   Scattered Clouds
7:15 AM 57.2 °F 55.4 °F 94% 30.09 in 6.2 mi ENE 2.3 mph - N/A   Scattered Clouds
7:45 AM 57.2 °F 55.4 °F 94% 30.09 in 6.2 mi ENE 2.3 mph - N/A   Scattered Clouds
8:00 AM 58 °F 55 °F 85% 30.11 in 6 mi ENE 2.3 mph - -   Scattered Clouds
8:15 AM 59.0 °F 55.4 °F 88% 30.09 in 6.2 mi NNE 1.2 mph - N/A   Scattered Clouds
8:45 AM 60.8 °F 59.0 °F 94% 30.09 in 6.2 mi NE 3.5 mph - N/A   Scattered Clouds
9:15 AM 62.6 °F 59.0 °F 88% 30.09 in 6.2 mi NNE 3.5 mph - N/A   Partly Cloudy
9:45 AM 62.6 °F 59.0 °F 88% 30.09 in 6.2 mi NNE 4.6 mph - N/A   Partly Cloudy
10:15 AM 64.4 °F 59.0 °F 83% 30.09 in 6.2 mi NNE 2.3 mph - N/A   Partly Cloudy
10:45 AM 66.2 °F 59.0 °F 78% 30.09 in 6.2 mi NNE 3.5 mph - N/A   Partly Cloudy
11:00 AM 66 °F 59 °F 70% 30.12 in 9 mi NNE 3.5 mph - -   Scattered Clouds
11:15 AM 68.0 °F 59.0 °F 73% 30.09 in 6.2 mi NNE 4.6 mph - N/A   Partly Cloudy
11:45 AM 69.8 °F 59.0 °F 68% 30.09 in 6.2 mi NNE 2.3 mph - N/A   Partly Cloudy
12:15 PM 71.6 °F 55.4 °F 57% 30.09 in 6.2 mi NE 2.3 mph - N/A   Partly Cloudy
12:45 PM 73.4 °F 55.4 °F 53% 30.09 in 6.2 mi NE 2.3 mph - N/A   Partly Cloudy
1:15 PM 73.4 °F 53.6 °F 50% 30.09 in 6.2 mi North 3.5 mph - N/A   Partly Cloudy
1:45 PM 75.2 °F 53.6 °F 47% 30.06 in 6.2 mi NNE 1.2 mph - N/A   Partly Cloudy
2:00 PM 74 °F 53 °F 37% 30.08 in 12 mi NNE 1.2 mph - -   Partly Cloudy
2:15 PM 77.0 °F 53.6 °F 44% 30.06 in 6.2 mi WSW 3.5 mph - N/A   Partly Cloudy
2:45 PM 77.0 °F 53.6 °F 44% 30.04 in 6.2 mi SW 4.6 mph - N/A   Partly Cloudy
3:15 PM 77.0 °F 51.8 °F 41% 30.04 in 6.2 mi SW 3.5 mph - N/A   Partly Cloudy
3:45 PM 75.2 °F 51.8 °F 44% 30.04 in 6.2 mi WNW 6.9 mph - N/A   Scattered Clouds
4:15 PM 73.4 °F 57.2 °F 57% 30.04 in 6.2 mi WSW 6.9 mph - N/A   Scattered Clouds
4:45 PM 75.2 °F 59.0 °F 57% 30.04 in 6.2 mi WSW 6.9 mph - N/A   Scattered Clouds
5:00 PM 74 °F 58 °F 48% 30.04 in 12 mi WSW 6.9 mph - -   Partly Cloudy
5:15 PM 73.4 °F 59.0 °F 61% 30.04 in 6.2 mi WSW 6.9 mph - N/A Rain , Thunderstorm Light Thunderstorms and Rain
5:45 PM 71.6 °F 57.2 °F 60% 30.04 in 6.2 mi ESE 17.3 mph - N/A Rain , Thunderstorm Light Thunderstorms and Rain
6:15 PM 64.4 °F 57.2 °F 77% 30.04 in 4.3 mi East 11.5 mph 23.0 mph N/A Rain , Thunderstorm Light Thunderstorms and Rain
6:45 PM 62.6 °F 59.0 °F 88% 30.04 in 2.5 mi South 2.3 mph - N/A Rain , Thunderstorm Thunderstorms and Rain
7:15 PM 64.4 °F 60.8 °F 88% 30.04 in 5.0 mi Calm Calm - N/A   Mostly Cloudy
7:45 PM 64.4 °F 60.8 °F 88% 30.04 in 6.2 mi SE 1.2 mph - N/A   Scattered Clouds
8:00 PM 65 °F 61 °F 82% 30.05 in 6 mi SE 1.2 mph - - Thunderstorm Light Thunderstorm
8:15 PM 64.4 °F 60.8 °F 88% 30.04 in 6.2 mi ESE 3.5 mph - N/A   Scattered Clouds
8:45 PM 64.4 °F 60.8 °F 88% 30.04 in 6.2 mi ESE 4.6 mph - N/A   Scattered Clouds
9:15 PM 64.4 °F 60.8 °F 88% 30.04 in 6.2 mi ESE 1.2 mph - N/A   Scattered Clouds
9:45 PM 62.6 °F 59.0 °F 88% 30.04 in 6.2 mi East 2.3 mph - N/A   Scattered Clouds
10:15 PM 62.6 °F 59.0 °F 88% 30.04 in 6.2 mi East 1.2 mph - N/A   Scattered Clouds
10:45 PM 62.6 °F 59.0 °F 88% 30.04 in 6.2 mi ENE 2.3 mph - N/A   Partly Cloudy
11:00 PM 63 °F 60 °F 85% 30.06 in 6 mi ENE 2.3 mph - -   Scattered Clouds
11:15 PM 62.6 °F 59.0 °F 88% 30.04 in 6.2 mi Calm Calm - N/A   Scattered Clouds
11:45 PM 62.6 °F 59.0 °F 88% 30.04 in 6.2 mi Calm Calm - N/A   Scattered Clouds